Tracking 19476 objects as of 17-Jan-2019
HD Live streaming from Space Station
objects crossing your sky now

OSIRIS-3U

Track OSIRIS-3U now!
10-day predictions
OSIRIS-3U is classified as:


NORAD ID: 43027
Int'l Code: 1998-067NL
Perigee: 318.0 km
Apogee: 320.8 km
Inclination: 51.6 °
Period: 90.8 minutes
Semi major axis: 6690 km
RCS: Unknown
Launch date: November 20, 1998
Source: United States (US)
Launch site: TYURATAM MISSILE AND SPACE COMPLEX (TTMTR)

Uplink (MHz):
Downlink (MHz): 437.505
Beacon (MHz):
Mode: 9k6-38k4 GMSK
Call sign:
Status: Inactive

aabbcc
Your satellite tracking list
Your tracking list is empty




NASA's NSSDC Master Catalog

Two Line Element Set (TLE):
1 43027U 98067NL  19017.17729342  .00122050  00000-0  46997-3 0  9997
2 43027  51.6352 354.0253 0002067  87.3188 272.8053 15.86453510 66098
Source of the keplerian elements: AFSPC